Terminal Aerodrome Forecast
Issued by NWS Upton, NY

Home | Current Version | Previous Version | Text Only | Print | Product List | Glossary On
Versions: 1 2 3 4 5 6 7 8 9 10 11 12 13 14 15 16 17 18 19 20 21 22 23 24 25 26 27 28 29 30 31 32 33 34 35 36 37
000
FTUS41 KOKX 251700
TAFLGA
TAF
KLGA 251734Z 2518/2618 26012G20KT P6SM SCT050
     FM252300 25012KT P6SM BKN050
     FM260900 29014G22KT P6SM SCT050
     FM261500 30020G30KT P6SM SCT050=

USA.gov is the U.S. government's official web portal to all federal, state and local government web resources and services.